Regional Weather Roundup
Issued by NWS Bismarck, ND

Home | Current Version | Previous Version | Text Only | Print | Product List | Glossary On
Versions: 1 2 3 4 5 6 7 8 9 10 11 12 13 14 15 16 17 18 19 20 21 22 23 24 25 26 27 28 29 30 31 32 33 34 35 36 37 38 39 40 41 42 43 44 45 46 47 48 49 50
000
ASUS43 KBIS 231010
RWRBIS

NWR BROADCAST TEXT
NATIONAL WEATHER SERVICE BISMARCK ND
500 AM CDT THU MAR 23 2017

NOTE: "FAIR" INDICATES FEW OR NO CLOUDS BELOW 12,000 FEET WITH NO
SIGNIFICANT WEATHER AND/OR OBSTRUCTIONS TO VISIBILITY.


CITY           SKY/WX    TMP DP  RH WIND       PRES   REMARKS
WILLISTON      FAIR      31  29  92 CALM      29.75F
MINOT          FAIR      34  28  79 S3        29.75F
MINOT AFB      FAIR      29  27  92 S7        29.74F
BISMARCK       FAIR      32  28  85 NE9       29.78F
DICKINSON      CLOUDY    34  30  85 W6        29.74S
GARRISON         N/A     31  28  89 CALM      29.76F
HETTINGER ARPT LGT RAIN  35  32  88 NW8       29.78R
JAMESTOWN      FAIR      28  25  88 S7        29.83F
HAZEN          CLOUDY    34  30  86 CALM      29.78F
LINTON           N/A     32  32 100 E10       29.79F
MANDAN         PTSUNNY   30  28  93 E7        29.77F
RUGBY            N/A     28  27  93 SE8       29.79F
STANLEY        FAIR      30  30 100 S5        29.77S
TIOGA          FAIR      30  30 100 CALM      29.75F
WATFORD CITY   PTSUNNY   30  30 100 CALM      29.75F
$$

CITY           SKY/WX    TMP DP  RH WIND       PRES   REMARKS
GRAND FORKS    FAIR      33  21  61 S14       29.90F
GRAND FORKS AF FAIR      32  25  74 S15       29.90F
DEVILS LAKE    FAIR      30  26  85 S10       29.83F
FARGO          FAIR      36  25  64 S23G32    29.92F
GRAFTON        FAIR      30  27  86 S12       29.93F
GWINNER        SUNNY     30  27  86 MISG      29.89F
ROLLA          FAIR      23  23 100 S9        29.79F WCI  13
$$

CITY           SKY/WX    TMP DP  RH WIND       PRES   REMARKS
ABERDEEN       FAIR      37  27  67 S17       29.85F
MOBRIDGE       FAIR      41  30  65 SE12      29.74S
BUFFALO          N/A     41  37  86 NE15      29.63F
RAPID CITY     FAIR      47  37  68 CALM      29.67F
GLASGOW        FAIR      39  33  79 SW3       29.73F
SIDNEY         FAIR      33  31  92 S5        29.75S
WOLF POINT     FAIR      35  32  88 NW3       29.74F
GLENDIVE       CLOUDY    41  37  86 S7        29.76F
MILES CITY     CLOUDY    45  39  79 N9        29.73F
BAKER          LGT RAIN  42  37  82 N10       29.75F
$$

CITY           SKY/WX    TMP DP  RH WIND       PRES   REMARKS
BILLINGS       MOCLDY    45  42  89 NW5       29.75F
GREAT FALLS    FAIR      31  23  72 W8        29.79F
REGINA         CLEAR     30  28  93 NW10      29.73R
ESTEVAN        PTCLDY    34  30  86 SW6       29.72F
$$




USA.gov is the U.S. government's official web portal to all federal, state and local government web resources and services.